SCP
0 0 0 0 0 0 0 0 0 0 0 0 0 0 0 0 0 0 0 0 0 0
0 0 0 0 0 0 0 0 0 0 0 0 0 0 0 0 0 0 0 0 0 0
0 0 0 0 0 0 0 0 0 0 0 0 0 0 0 0 0 0 0 0 0 0
0 0 0 0 0 0 0 0 0 0 0 0 0 0 0 0 0 0 0 0 0 0
0 0 0 0 0 0 0 0 0 0 0 0 0 0 0 0 0 0 0 0 0 0
0 0 0 0 0 0 0 0 0 0 0 0 0 0 0 0 0 0 0 0 0 0
0 0 0 0 0 0 0 0 0 0 0 0 0 0 0 0 0 0 0 0 0 0
0 0 0 0 0 0 0 0 0 0 0 0 0 1 0 0 0 0 0 0 0 0
0 0 0 0 0 0 0 0 0 0 0 0 0 0 0 0 0 0 0 0 0 0
0 0 0 0 0 1 1 1 0 0 1 0 0 0 0 0 0 0 0 0 0 0
1 1 0 1 1 1 1 0 1 1 0 1 1 0 0 0 0 0 0 0 0 0
1 1 1 2 2 1 2 1 1 1 0 1 0 0 0 0 0 0 0 0 0 0
1 1 2 2 2 2 2 1 1 0 1 0 0 0 0 0 0 0 0 0 0 0
2 2 2 2 2 2 3 0 0 0 0 0 0 0 0 0 0 0 0 0 0 0
Wind_Speed_500mb
7 13 12 10 15 15 16 18 19 23 25 20 17 16 21 27 23 22 21 21 24 25
11 12 20 19 21 23 23 15 18 20 26 30 20 19 22 27 25 28 27 31 29 33
8 3 8 14 12 12 12 17 19 19 22 22 24 22 24 31 31 29 32 37 32 37
17 15 16 11 10 10 11 15 21 24 25 25 28 28 28 35 38 32 33 34 37 38
30 27 24 19 17 15 16 17 20 20 23 29 34 33 29 34 33 34 34 32 34 39
36 24 25 25 20 17 15 16 14 19 27 32 31 28 27 30 37 37 37 37 39 44
36 28 22 17 16 16 15 16 18 22 28 28 28 31 33 37 36 35 36 37 44 49
40 31 26 22 19 15 14 16 20 26 30 31 28 33 34 35 42 41 37 44 49 53
45 38 36 27 22 20 20 21 25 32 34 33 32 34 36 36 38 39 42 48 48 51
51 43 39 33 30 29 30 30 29 28 32 33 36 34 32 36 37 44 48 43 41 41
51 48 41 41 39 37 33 33 31 28 35 35 34 36 37 38 44 53 56 50 44 43
55 50 47 47 40 37 38 41 39 37 41 35 40 40 31 39 46 59 44 38 39 38
52 49 50 47 42 43 48 47 42 41 45 36 37 40 42 41 46 42 51 48 34 40
47 46 46 45 44 49 50 48 39 41 44 40 33 37 38 42 48 44 41 39 42 37
Wind_Direction_500mb
223 207 185 203 230 245 271 249 271 289 304 320 337 341 325 326 326 327 314 316 322 334
195 179 210 223 236 249 258 257 258 272 287 297 302 309 306 299 295 297 295 302 305 314
227 223 216 227 231 241 253 258 268 286 298 294 299 312 303 301 300 300 287 288 298 309
216 243 253 246 258 268 285 287 289 294 300 304 306 307 303 300 302 306 294 296 302 299
220 239 238 248 261 264 272 283 293 299 304 306 310 309 302 306 306 294 300 295 296 297
226 234 227 233 244 256 270 290 297 305 310 314 314 312 308 305 301 299 297 303 297 301
227 243 242 237 241 256 278 288 292 295 300 304 304 310 314 312 303 301 308 312 314 309
227 240 249 245 242 235 251 268 274 288 291 291 303 311 305 302 311 306 312 314 310 308
221 237 240 238 234 234 253 268 273 283 289 292 300 307 301 300 308 305 309 314 319 315
224 235 236 238 237 236 246 255 280 285 288 297 308 304 307 298 301 297 300 305 314 313
231 235 236 237 237 237 247 257 274 290 310 302 309 299 296 302 313 310 306 300 310 313
230 232 234 238 241 246 248 257 263 277 296 295 294 298 292 307 309 321 320 297 297 310
233 238 239 241 244 245 249 259 258 280 289 288 295 298 298 305 309 306 299 312 307 317
238 244 247 251 249 246 254 253 263 278 290 292 299 301 294 304 306 306 301 306 311 313
Wind_Speed_850mb
7 13 12 10 15 15 16 18 19 23 25 20 17 16 21 27 23 22 21 21 24 25
11 12 20 19 21 23 23 15 18 20 26 30 20 19 22 27 25 28 27 31 29 33
8 3 8 14 12 12 12 17 19 19 22 22 24 22 24 31 31 29 32 37 32 37
17 15 16 11 10 10 11 15 21 24 25 25 28 28 28 35 38 32 33 34 37 38
30 27 24 19 17 15 16 17 20 20 23 29 34 33 29 34 33 34 34 32 34 39
36 24 25 25 20 17 15 16 14 19 27 32 31 28 27 30 37 37 37 37 39 44
36 28 22 17 16 16 15 16 18 22 28 28 28 31 33 37 36 35 36 37 44 49
40 31 26 22 19 15 14 16 20 26 30 31 28 33 34 35 42 41 37 44 49 53
45 38 36 27 22 20 20 21 25 32 34 33 32 34 36 36 38 39 42 48 48 51
51 43 39 33 30 29 30 30 29 28 32 33 36 34 32 36 37 44 48 43 41 41
51 48 41 41 39 37 33 33 31 28 35 35 34 36 37 38 44 53 56 50 44 43
55 50 47 47 40 37 38 41 39 37 41 35 40 40 31 39 46 59 44 38 39 38
52 49 50 47 42 43 48 47 42 41 45 36 37 40 42 41 46 42 51 48 34 40
47 46 46 45 44 49 50 48 39 41 44 40 33 37 38 42 48 44 41 39 42 37
Wind_Direction_850mb
223 207 185 203 230 245 271 249 271 289 304 320 337 341 325 326 326 327 314 316 322 334
195 179 210 223 236 249 258 257 258 272 287 297 302 309 306 299 295 297 295 302 305 314
227 223 216 227 231 241 253 258 268 286 298 294 299 312 303 301 300 300 287 288 298 309
216 243 253 246 258 268 285 287 289 294 300 304 306 307 303 300 302 306 294 296 302 299
220 239 238 248 261 264 272 283 293 299 304 306 310 309 302 306 306 294 300 295 296 297
226 234 227 233 244 256 270 290 297 305 310 314 314 312 308 305 301 299 297 303 297 301
227 243 242 237 241 256 278 288 292 295 300 304 304 310 314 312 303 301 308 312 314 309
227 240 249 245 242 235 251 268 274 288 291 291 303 311 305 302 311 306 312 314 310 308
221 237 240 238 234 234 253 268 273 283 289 292 300 307 301 300 308 305 309 314 319 315
224 235 236 238 237 236 246 255 280 285 288 297 308 304 307 298 301 297 300 305 314 313
231 235 236 237 237 237 247 257 274 290 310 302 309 299 296 302 313 310 306 300 310 313
230 232 234 238 241 246 248 257 263 277 296 295 294 298 292 307 309 321 320 297 297 310
233 238 239 241 244 245 249 259 258 280 289 288 295 298 298 305 309 306 299 312 307 317
238 244 247 251 249 246 254 253 263 278 290 292 299 301 294 304 306 306 301 306 311 313